AFR93YT LFPG-LFBO

Flight info

Callsign AFR93YT
Flight time 0h 59m
Altitude 35000
Route ERIXU DCT ETAMO DCT GUERE DCT NARAK
Aircraft A321/M-SDE2E3FGIJ1RWY/HB1

Departure

Time 2026-05-06 19:53
Airport Charles de Gaulle International Airport (LFPG)

Arrival

Time 2026-05-06 20:52
Airport Toulouse-Blagnac Airport (LFBO)
Time Latitude Longitude Altitude Speed Heading
2026-05-06 19:25 49.00718 2.57398 359 ft 0 kts 184°
2026-05-06 19:42 49.00736 2.57398 361 ft 4 kts 162°
2026-05-06 19:42 49.00755 2.57378 359 ft 4 kts 104°
2026-05-06 19:42 49.00756 2.57357 357 ft 0 kts 85°
2026-05-06 19:44 49.00757 2.57375 359 ft 4 kts 85°
2026-05-06 19:45 49.00760 2.57423 359 ft 5 kts 85°
2026-05-06 19:45 49.00763 2.57472 354 ft 5 kts 85°
2026-05-06 19:45 49.00772 2.57527 359 ft 9 kts 68°
2026-05-06 19:45 49.00830 2.57566 354 ft 8 kts
2026-05-06 19:46 49.00874 2.57608 364 ft 8 kts 57°
2026-05-06 19:46 49.00888 2.57722 354 ft 13 kts 84°
2026-05-06 19:46 49.00896 2.57881 358 ft 16 kts 85°
2026-05-06 19:46 49.00904 2.58049 354 ft 14 kts 85°
2026-05-06 19:47 49.00927 2.58197 358 ft 14 kts 42°
2026-05-06 19:47 49.01026 2.58225 354 ft 16 kts 354°
2026-05-06 19:47 49.01143 2.58210 361 ft 18 kts 355°
2026-05-06 19:47 49.01271 2.58194 359 ft 19 kts 355°
2026-05-06 19:48 49.01404 2.58176 354 ft 20 kts 354°
2026-05-06 19:48 49.01538 2.58157 354 ft 17 kts 355°
2026-05-06 19:48 49.01662 2.58144 354 ft 18 kts 356°
2026-05-06 19:48 49.01794 2.58127 354 ft 19 kts 354°
2026-05-06 19:49 49.01910 2.58093 359 ft 17 kts 341°
2026-05-06 19:49 49.02008 2.58005 357 ft 17 kts 315°
2026-05-06 19:49 49.02070 2.57854 358 ft 17 kts 290°
2026-05-06 19:49 49.02089 2.57671 354 ft 18 kts 267°
2026-05-06 19:50 49.02079 2.57491 356 ft 16 kts 265°
2026-05-06 19:50 49.02070 2.57315 354 ft 17 kts 265°
2026-05-06 19:50 49.02065 2.57149 358 ft 15 kts 281°
2026-05-06 19:50 49.02148 2.57075 354 ft 15 kts 354°
2026-05-06 19:51 49.02254 2.57060 357 ft 13 kts 354°
2026-05-06 19:51 49.02339 2.57019 361 ft 13 kts 324°
2026-05-06 19:51 49.02361 2.56900 355 ft 10 kts 265°
2026-05-06 19:51 49.02360 2.56883 357 ft 0 kts 266°
2026-05-06 19:52 49.02358 2.56826 354 ft 30 kts 266°
2026-05-06 19:52 49.02322 2.56122 354 ft 100 kts 266°
2026-05-06 19:52 49.02254 2.54774 359 ft 152 kts 265°
2026-05-06 19:52 49.02153 2.52962 476 ft 182 kts 266°
2026-05-06 19:53 49.02020 2.51091 1235 ft 174 kts 265°
2026-05-06 19:53 49.01810 2.49305 2019 ft 169 kts 262°
2026-05-06 19:53 49.01582 2.47484 2440 ft 183 kts 265°
2026-05-06 19:53 49.01428 2.45482 2777 ft 194 kts 268°
2026-05-06 19:54 49.01342 2.43413 3282 ft 196 kts 270°
2026-05-06 19:54 49.01249 2.41320 3746 ft 200 kts 267°
2026-05-06 19:54 49.01123 2.39186 4204 ft 204 kts 266°
2026-05-06 19:54 49.01000 2.36983 4496 ft 217 kts 269°
2026-05-06 19:55 49.01102 2.34592 4619 ft 239 kts 282°
2026-05-06 19:55 49.01453 2.31994 4928 ft 259 kts 284°
2026-05-06 19:55 49.01871 2.29289 5562 ft 265 kts 284°
2026-05-06 19:55 49.02290 2.26530 6275 ft 269 kts 283°
2026-05-06 19:56 49.02690 2.23723 6959 ft 273 kts 282°
2026-05-06 19:56 49.03071 2.20870 7647 ft 276 kts 281°
2026-05-06 19:56 49.03434 2.17992 8374 ft 278 kts 281°
2026-05-06 19:56 49.03789 2.15086 9057 ft 281 kts 281°
2026-05-06 19:57 49.03880 2.12104 9699 ft 286 kts 259°
2026-05-06 19:57 49.03113 2.09310 10278 ft 291 kts 234°
2026-05-06 19:57 49.01629 2.07224 10623 ft 306 kts 209°
2026-05-06 19:57 48.99547 2.06231 10766 ft 326 kts 188°
2026-05-06 19:58 48.97265 2.05791 11198 ft 333 kts 187°
2026-05-06 19:58 48.94919 2.05346 11763 ft 337 kts 187°
2026-05-06 19:58 48.92615 2.04901 12360 ft 341 kts 187°
2026-05-06 19:58 48.90251 2.04434 12927 ft 345 kts 187°
2026-05-06 19:59 48.87860 2.03952 13527 ft 348 kts 188°
2026-05-06 19:59 48.85447 2.03464 14059 ft 352 kts 188°
2026-05-06 19:59 48.83016 2.02973 14625 ft 354 kts 188°
2026-05-06 19:59 48.80568 2.02478 15188 ft 356 kts 188°
2026-05-06 20:00 48.78107 2.01982 15732 ft 358 kts 188°
2026-05-06 20:00 48.75627 2.01482 16261 ft 361 kts 188°
2026-05-06 20:00 48.73129 2.00980 16790 ft 363 kts 188°
2026-05-06 20:00 48.70616 2.00476 17330 ft 366 kts 188°
2026-05-06 20:01 48.68083 1.99995 17860 ft 368 kts 185°
2026-05-06 20:01 48.65512 2.00054 18355 ft 372 kts 174°
2026-05-06 20:01 48.62974 2.00891 18777 ft 376 kts 162°
2026-05-06 20:01 48.60516 2.02286 19095 ft 382 kts 163°
2026-05-06 20:02 48.57870 2.02875 19220 ft 390 kts 182°
2026-05-06 20:02 48.55139 2.02661 19478 ft 395 kts 184°
2026-05-06 20:02 48.52381 2.02401 19824 ft 398 kts 184°
2026-05-06 20:02 48.49614 2.02134 20185 ft 400 kts 184°
2026-05-06 20:03 48.46830 2.01867 20535 ft 402 kts 184°
2026-05-06 20:03 48.44034 2.01605 20888 ft 405 kts 184°
2026-05-06 20:03 48.41216 2.01350 21236 ft 407 kts 184°
2026-05-06 20:03 48.38384 2.01101 21608 ft 408 kts 184°
2026-05-06 20:04 48.35545 2.00856 21981 ft 410 kts 184°
2026-05-06 20:04 48.32687 2.00607 22322 ft 412 kts 184°
2026-05-06 20:04 48.29816 2.00354 22666 ft 415 kts 184°
2026-05-06 20:04 48.26923 2.00098 23030 ft 417 kts 184°
2026-05-06 20:05 48.24017 1.99838 23387 ft 419 kts 184°
2026-05-06 20:05 48.21099 1.99579 23710 ft 422 kts 184°
2026-05-06 20:05 48.18166 1.99322 24040 ft 423 kts 184°
2026-05-06 20:05 48.15224 1.99066 24365 ft 424 kts 184°
2026-05-06 20:06 48.12267 1.98805 24675 ft 426 kts 184°
2026-05-06 20:06 48.09301 1.98541 24972 ft 428 kts 184°
2026-05-06 20:06 48.06320 1.98277 25267 ft 431 kts 184°
2026-05-06 20:06 48.03321 1.98013 25576 ft 433 kts 184°
2026-05-06 20:07 48.01327 1.97840 25771 ft 434 kts 184°
2026-05-06 20:07 47.98306 1.97579 26055 ft 436 kts 184°
2026-05-06 20:07 47.94277 1.97228 26411 ft 439 kts 184°
2026-05-06 20:07 47.91216 1.96961 26688 ft 442 kts 184°
2026-05-06 20:08 47.88143 1.96696 26965 ft 444 kts 184°
2026-05-06 20:08 47.85051 1.96429 27238 ft 446 kts 184°
2026-05-06 20:08 47.82955 1.96247 27421 ft 447 kts 184°
2026-05-06 20:08 47.79845 1.95974 27661 ft 449 kts 184°
2026-05-06 20:09 47.76714 1.95700 27912 ft 452 kts 184°
2026-05-06 20:09 47.73567 1.95428 28163 ft 454 kts 184°
2026-05-06 20:09 47.70409 1.95155 28422 ft 456 kts 184°
2026-05-06 20:09 47.67232 1.94880 28679 ft 458 kts 184°
2026-05-06 20:10 47.64041 1.94604 28932 ft 460 kts 184°
2026-05-06 20:10 47.60836 1.94328 29170 ft 462 kts 184°
2026-05-06 20:10 47.57619 1.94047 29393 ft 464 kts 184°
2026-05-06 20:10 47.54391 1.93765 29608 ft 466 kts 184°
2026-05-06 20:11 47.51151 1.93481 29818 ft 468 kts 184°
2026-05-06 20:11 47.47937 1.93203 30009 ft 469 kts 184°
2026-05-06 20:11 47.44674 1.92924 30182 ft 471 kts 184°
2026-05-06 20:11 47.41404 1.92648 30420 ft 470 kts 184°
2026-05-06 20:12 47.38144 1.92371 30679 ft 469 kts 184°
2026-05-06 20:12 47.34891 1.92092 30926 ft 468 kts 184°
2026-05-06 20:12 47.31641 1.91814 31169 ft 468 kts 184°
2026-05-06 20:12 47.28396 1.91540 31425 ft 467 kts 184°
2026-05-06 20:13 47.25158 1.91267 31684 ft 466 kts 184°
2026-05-06 20:13 47.21923 1.90992 31940 ft 465 kts 184°
2026-05-06 20:13 47.18697 1.90718 32196 ft 464 kts 184°
2026-05-06 20:13 47.15477 1.90442 32447 ft 463 kts 184°
2026-05-06 20:14 47.12261 1.90169 32694 ft 462 kts 184°
2026-05-06 20:14 47.09051 1.89894 32940 ft 462 kts 185°
2026-05-06 20:14 47.05850 1.89623 33186 ft 461 kts 184°
2026-05-06 20:14 47.02651 1.89356 33429 ft 460 kts 185°
2026-05-06 20:15 46.99459 1.89088 33672 ft 459 kts 185°
2026-05-06 20:15 46.96271 1.88822 33906 ft 458 kts 185°
2026-05-06 20:15 46.93091 1.88555 34105 ft 458 kts 185°
2026-05-06 20:15 46.89913 1.88288 34282 ft 457 kts 185°
2026-05-06 20:16 46.86741 1.88021 34452 ft 457 kts 185°
2026-05-06 20:16 46.83568 1.87752 34623 ft 456 kts 185°
2026-05-06 20:16 46.80401 1.87485 34805 ft 456 kts 185°
2026-05-06 20:16 46.77237 1.87219 34961 ft 456 kts 185°
2026-05-06 20:17 46.70947 1.86699 34996 ft 451 kts 185°
2026-05-06 20:17 46.64727 1.86188 34994 ft 450 kts 185°
2026-05-06 20:18 46.58473 1.85671 34988 ft 450 kts 185°
2026-05-06 20:18 46.52223 1.85144 34984 ft 450 kts 185°
2026-05-06 20:19 46.45965 1.84620 34986 ft 450 kts 185°
2026-05-06 20:19 46.39713 1.84114 34986 ft 450 kts 185°
2026-05-06 20:20 46.33450 1.83591 34981 ft 450 kts 185°
2026-05-06 20:20 46.27194 1.83069 34983 ft 450 kts 185°
2026-05-06 20:21 46.20939 1.82561 34983 ft 450 kts 185°
2026-05-06 20:21 46.14681 1.82057 34969 ft 450 kts 185°
2026-05-06 20:22 46.08427 1.81553 34985 ft 450 kts 185°
2026-05-06 20:22 46.02182 1.81044 34976 ft 449 kts 185°
2026-05-06 20:23 45.95943 1.80530 34971 ft 449 kts 185°
2026-05-06 20:23 45.89709 1.80015 34980 ft 448 kts 185°
2026-05-06 20:24 45.83481 1.79518 34982 ft 448 kts 185°
2026-05-06 20:24 45.77264 1.79021 34983 ft 447 kts 185°
2026-05-06 20:25 45.71050 1.78520 34973 ft 447 kts 185°
2026-05-06 20:25 45.64844 1.78019 34975 ft 446 kts 185°
2026-05-06 20:26 45.58645 1.77522 34972 ft 446 kts 185°
2026-05-06 20:26 45.52443 1.77026 34963 ft 446 kts 185°
2026-05-06 20:27 45.46250 1.76530 34967 ft 446 kts 185°
2026-05-06 20:27 45.40058 1.76039 34967 ft 446 kts 185°
2026-05-06 20:28 45.33868 1.75547 34965 ft 445 kts 185°
2026-05-06 20:28 45.27724 1.75066 34970 ft 445 kts 185°
2026-05-06 20:29 45.21541 1.74584 34974 ft 445 kts 185°
2026-05-06 20:29 45.18446 1.74340 34820 ft 445 kts 185°
2026-05-06 20:29 45.15357 1.74094 34377 ft 445 kts 186°
2026-05-06 20:30 45.12254 1.73843 33478 ft 449 kts 186°
2026-05-06 20:30 45.06056 1.73355 32351 ft 441 kts 185°
2026-05-06 20:30 45.03001 1.73122 31802 ft 438 kts 185°
2026-05-06 20:31 44.99973 1.72888 31264 ft 434 kts 185°
2026-05-06 20:31 44.96965 1.72648 30728 ft 431 kts 186°
2026-05-06 20:31 44.93984 1.72407 30209 ft 428 kts 186°
2026-05-06 20:31 44.91020 1.72170 29635 ft 425 kts 185°
2026-05-06 20:32 44.88090 1.71943 29132 ft 419 kts 185°
2026-05-06 20:32 44.85194 1.71717 28622 ft 414 kts 185°
2026-05-06 20:32 44.82333 1.71495 28122 ft 409 kts 185°
2026-05-06 20:32 44.79510 1.71280 27625 ft 403 kts 185°
2026-05-06 20:33 44.76725 1.71067 27159 ft 398 kts 185°
2026-05-06 20:33 44.73983 1.70855 26701 ft 392 kts 185°
2026-05-06 20:33 44.71280 1.70641 26243 ft 387 kts 185°
2026-05-06 20:33 44.68612 1.70432 25805 ft 382 kts 185°
2026-05-06 20:34 44.65972 1.70227 25378 ft 377 kts 185°
2026-05-06 20:34 44.63365 1.70029 24961 ft 374 kts 185°
2026-05-06 20:34 44.60778 1.69834 24546 ft 371 kts 185°
2026-05-06 20:34 44.58210 1.69634 24133 ft 368 kts 185°
2026-05-06 20:35 44.55693 1.69435 23722 ft 366 kts 185°
2026-05-06 20:35 44.53161 1.69236 23268 ft 363 kts 184°
2026-05-06 20:35 44.50617 1.69040 22838 ft 360 kts 184°
2026-05-06 20:35 44.48123 1.68849 22423 ft 358 kts 184°
2026-05-06 20:36 44.45647 1.68658 22007 ft 355 kts 184°
2026-05-06 20:36 44.43219 1.68474 21596 ft 353 kts 184°
2026-05-06 20:36 44.40776 1.68290 21178 ft 351 kts 184°
2026-05-06 20:36 44.38354 1.68106 20760 ft 347 kts 184°
2026-05-06 20:37 44.35950 1.67918 20348 ft 344 kts 184°
2026-05-06 20:37 44.33565 1.67730 19933 ft 342 kts 184°
2026-05-06 20:37 44.31197 1.67546 19521 ft 340 kts 184°
2026-05-06 20:37 44.28846 1.67365 19112 ft 338 kts 184°
2026-05-06 20:38 44.26505 1.67190 18704 ft 335 kts 184°
2026-05-06 20:38 44.24183 1.67018 18299 ft 333 kts 185°
2026-05-06 20:38 44.21877 1.66843 17863 ft 330 kts 185°
2026-05-06 20:38 44.19593 1.66665 17464 ft 328 kts 185°
2026-05-06 20:39 44.17327 1.66487 17075 ft 325 kts 185°
2026-05-06 20:39 44.15076 1.66313 16691 ft 323 kts 185°
2026-05-06 20:39 44.12838 1.66143 16311 ft 321 kts 185°
2026-05-06 20:39 44.10617 1.65975 15935 ft 319 kts 185°
2026-05-06 20:40 44.08411 1.65810 15562 ft 317 kts 185°
2026-05-06 20:40 44.06215 1.65646 15183 ft 315 kts 185°
2026-05-06 20:40 44.04032 1.65480 14812 ft 313 kts 185°
2026-05-06 20:40 44.01862 1.65314 14438 ft 311 kts 185°
2026-05-06 20:41 43.99707 1.65149 14060 ft 309 kts 186°
2026-05-06 20:41 43.97571 1.64986 13684 ft 307 kts 186°
2026-05-06 20:41 43.95447 1.64820 13293 ft 307 kts 186°
2026-05-06 20:41 43.93256 1.64600 12924 ft 321 kts 186°
2026-05-06 20:42 43.91021 1.64405 12524 ft 321 kts 186°
2026-05-06 20:42 43.88803 1.64243 12114 ft 317 kts 185°
2026-05-06 20:42 43.86612 1.64095 11720 ft 313 kts 185°
2026-05-06 20:42 43.84452 1.63948 11330 ft 309 kts 186°
2026-05-06 20:43 43.82322 1.63798 10943 ft 305 kts 186°
2026-05-06 20:43 43.80212 1.63645 10551 ft 302 kts 186°
2026-05-06 20:43 43.78128 1.63491 10227 ft 297 kts 186°
2026-05-06 20:43 43.76087 1.63340 9939 ft 290 kts 187°
2026-05-06 20:44 43.74111 1.63195 9814 ft 288 kts 187°
2026-05-06 20:44 43.72109 1.63049 9597 ft 289 kts 187°
2026-05-06 20:44 43.70113 1.62901 9147 ft 287 kts 187°
2026-05-06 20:44 43.68125 1.62750 8689 ft 286 kts 187°
2026-05-06 20:45 43.66141 1.62601 8231 ft 285 kts 187°
2026-05-06 20:45 43.64164 1.62453 7789 ft 284 kts 187°
2026-05-06 20:45 43.62196 1.62306 7347 ft 283 kts 186°
2026-05-06 20:45 43.60237 1.62162 6905 ft 282 kts 187°
2026-05-06 20:46 43.58287 1.62022 6486 ft 280 kts 187°
2026-05-06 20:46 43.56347 1.61884 6028 ft 276 kts 187°
2026-05-06 20:46 43.54435 1.61746 5494 ft 276 kts 187°
2026-05-06 20:46 43.52519 1.61605 5042 ft 275 kts 187°
2026-05-06 20:47 43.50621 1.61367 4617 ft 270 kts 197°
2026-05-06 20:47 43.48978 1.60328 4427 ft 251 kts 221°
2026-05-06 20:47 43.47832 1.58671 4344 ft 231 kts 241°
2026-05-06 20:47 43.47205 1.56706 4245 ft 222 kts 256°
2026-05-06 20:48 43.46996 1.54638 4139 ft 217 kts 279°
2026-05-06 20:48 43.47540 1.52729 3916 ft 218 kts 308°
2026-05-06 20:48 43.48678 1.51366 3609 ft 217 kts 321°
2026-05-06 20:48 43.49881 1.50135 3371 ft 217 kts 321°
2026-05-06 20:49 43.51077 1.48903 3124 ft 211 kts 320°
2026-05-06 20:49 43.52232 1.47709 2829 ft 204 kts 320°
2026-05-06 20:49 43.53316 1.46587 2561 ft 186 kts 320°
2026-05-06 20:49 43.54313 1.45555 2335 ft 172 kts 320°
2026-05-06 20:50 43.55236 1.44598 2096 ft 160 kts 319°
2026-05-06 20:50 43.56095 1.43706 1882 ft 154 kts 319°
2026-05-06 20:50 43.56931 1.42839 1705 ft 149 kts 318°
2026-05-06 20:50 43.57743 1.41996 1479 ft 144 kts 319°
2026-05-06 20:51 43.58543 1.41164 1286 ft 141 kts 319°
2026-05-06 20:51 43.59313 1.40365 1097 ft 141 kts 320°
2026-05-06 20:51 43.60091 1.39556 916 ft 139 kts 321°
2026-05-06 20:51 43.60857 1.38760 726 ft 137 kts 322°
2026-05-06 20:52 43.61620 1.37967 544 ft 137 kts 321°
2026-05-06 20:52 43.62314 1.37240 485 ft 94 kts 323°
2026-05-06 20:52 43.62601 1.36947 489 ft 18 kts 323°
2026-05-06 20:52 43.62769 1.36776 491 ft 35 kts 322°
2026-05-06 20:53 43.62918 1.36632 486 ft 31 kts 343°
2026-05-06 20:53 43.63045 1.36684 492 ft 16 kts 49°
2026-05-06 20:53 43.63059 1.36756 494 ft 5 kts 104°
2026-05-06 20:53 43.63037 1.36799 483 ft 5 kts 137°
2026-05-06 20:54 43.63007 1.36833 487 ft 7 kts 142°
2026-05-06 20:54 43.62964 1.36878 485 ft 9 kts 142°
2026-05-06 20:54 43.62908 1.36936 489 ft 11 kts 143°
2026-05-06 20:54 43.62841 1.37006 491 ft 12 kts 138°
2026-05-06 20:55 43.62856 1.37109 488 ft 13 kts 53°
2026-05-06 20:55 43.62900 1.37211 492 ft 10 kts 76°
2026-05-06 20:55 43.62918 1.37265 488 ft 6 kts 66°
2026-05-06 20:55 43.62926 1.37319 492 ft 6 kts 82°
2026-05-06 20:56 43.62928 1.37343 494 ft 0 kts 83°
2026-05-06 20:56 43.62928 1.37345 494 ft 0 kts 83°